Preview of NWS' New Version of Forecast
This preview is not operational and should not be used for support decisions.

Regional Weather Roundup (RWR)

Issued by Philadelphia/Mt Holly (PHI)

                            
000
ASUS41 KPHI 171411
RWRPHI

REGIONAL WEATHER ROUNDUP
NATIONAL WEATHER SERVICE MOUNT HOLLY NJ
900 AM EST THU JAN 17 2019

NOTE:  "FAIR" INDICATES FEW OR NO CLOUDS BELOW 12,000 FEET WITH NO
SIGNIFICANT WEATHER AND/OR OBSTRUCTIONS TO VISIBILITY.

 * = STATION DOES NOT REPORT PRECIPITATION (E.G. RAIN, SNOW, ETC.) 
        OR FOG.

NJZ015>026-171500-
SOUTHERN NEW JERSEY
  
CITY           SKY/WX    TMP DP  RH WIND       PRES   REMARKS
POMONA         FAIR      28  16  60 N9        30.40R WCI  19          
WILDWOOD*      FAIR      32  20  61 NE7       30.40R WCI  26          
MILLVILLE      FAIR      30  17  58 NE10      30.39R WCI  21          
WRIGHTSTOWN    FAIR      27   5  38 N10       30.37R WCI  17          
MOUNT HOLLY    FAIR      29  11  47 N8        30.41R WCI  21          
TRENTON        FAIR      27   7  42 NE9       30.40R WCI  18          

$$
NJZ001>014-171500-
NORTHERN NEW JERSEY
  
CITY           SKY/WX    TMP DP  RH WIND       PRES   REMARKS
SUSSEX         FAIR      21  11  65 NE3       30.38R                  
ANDOVER*         N/A     21   8  57 VRB6      30.38R WCI  13          
MORRISTOWN     PTSUNNY   25  12  58 N7        30.42R WCI  17          
NEWARK         PTSUNNY   26   9  48 N12       30.41R WCI  16          
TETERBORO      FAIR      26  10  50 N10G21    30.41R WCI  16          
CALDWELL       FAIR      23   9  55 N5        30.42R WCI  17          
SOMERVILLE     FAIR      25   6  44 N7        30.40R WCI  17          
ALLAIRE*       FAIR      27   9  46 N8        30.41R WCI  19          

$$
PAZ043-044-047-054-055-060>062-066>071-171500-
EASTERN PENNSYLVANIA
  
CITY           SKY/WX    TMP DP  RH WIND       PRES   REMARKS
PHILADELPHIA   PTSUNNY   29  11  47 N10       30.41R WCI  20          
NORTH PHILA    FAIR      28   9  44 NE8       30.42R WCI  20          
BLUE BELL*     FAIR      27  12  54 CALM      30.41R                  
DOYLESTOWN     FAIR      25   5  42 N8        30.38R WCI  16          
QUAKERTOWN*    SUNNY     23   9  54 NE3       30.38                   
PERKASIE*      FAIR      23   9  54 N5        30.39R WCI  17          
POTTSTOWN      FAIR      23  11  60 NE5       30.41R WCI  17          
LANCASTER      FAIR      27  16  63 NE9       30.38R WCI  18          
COATESVILLE    FAIR      25  14  63 NE6       30.37R WCI  18          
READING        FAIR      25  12  58 NE5       30.39R WCI  19          
ALLENTOWN      FAIR      26   8  46 E3        30.40R                  
MOUNT POCONO   FAIR      15   4  61 NW7       30.25R WCI   5          
HAZLETON       FAIR      19   9  63 CALM      30.32S                  
LEHIGHTON      FAIR      23   9  54 CALM      30.39R                  
WILKES BARRE   FAIR      18   8  65 NE6       30.35R WCI  10          

$$
DEZALL-MDZ008-012-015-019-020-171500-
DELAWARE AND EASTERN MARYLAND
  
CITY           SKY/WX    TMP DP  RH WIND       PRES   REMARKS
WILMINGTON     FAIR      30  17  58 NE9       30.40R WCI  22          
DOVER          FAIR      31  21  65 N6        30.38R WCI  26          
GEORGETOWN     FAIR      36  25  64 NE5       30.38R WCI  32          
EASTON         PTSUNNY   34  23  64 NE7       30.40S WCI  28          
ABERDEEN       PTSUNNY   30  19  64 CALM      30.39S                  
PATUXENT       PTSUNNY   32  29  88 CALM      30.36                   
OCEAN CITY     FAIR      34  28  79 N3        30.38R                  
WALLOPS ISLAND FAIR      35  28  75 CALM      30.38R                  
CAMBRIDGE      SUNNY     34  25  69 NE5       30.37S WCI  30          
SALISBURY      FAIR      31  29  92 CALM      30.37R                  

$$
PAZ001-021-NYZ056-072-MDZ011-DCZ001-171500-
OTHER NEARBY LOCATIONS
  
CITY           SKY/WX    TMP DP  RH WIND       PRES   REMARKS
HARRISBURG     FAIR      27  15  61 NE3       30.37R                  
STATE COLLEGE  MOSUNNY   21  14  73 CALM      30.30S                  
WILLIAMSPORT   FAIR      22  11  62 E5        30.38R WCI  16          
BINGHAMTON     FAIR      10   7  87 CALM      30.29R                  
NEW YORK CITY  FAIR      25   9  50 MISG      30.42R                  
BALTIMORE      CLOUDY    34  19  54 NE10      30.36R WCI  26          
WASHINGTON DC  CLOUDY    37  25  61 E9        30.37R WCI  30          

$$